Click on the image to enlargeKlik op de webcam foto voor een grotere versie
Or click here
for the webcam videoo


Visit our other website:Website of another weatherstation



Select another period ( hide this area )

Units Period Custom range Directly to
Metric English Both
Daily Weekly Monthly Yearly
use both date-selectors for a custom range
previous Day
With this date

WeatherUnderground graphs for this period ( click here ) Loading the graph can take up to a minute!


Daily Summary for Sunday 21 April 2019
Time Temp. ( °C ) Dew pt. ( °C ) Wind ( km/h ) from Gust ( km/h ) Pressure ( hPa ) Humid.( % ) Rainrate ( cm )
High17,6 4,9 4,7 East ( 30/64 ) 6,4 1026,3 56 -
Average14,9 4,4 1,0 Calm #42/67 2,6 1025,0 50 -
Low12,4 3,6 -   0,0 1023,6 42 -
Daily Tabular details for Sunday 21 April 2019
Time Temp. ( °C ) Dew pt. ( °C ) Wind ( km/h ) from Gust ( km/h ) Pressure ( hPa ) Humid.( % ) Rainrate ( cm )
00:03 17,6 4,5   Calm 1,6 1026,0 42 -
00:09 17,5 4,8   Calm 1,6 1026,3 43 -
00:14 17,3 4,6   Calm 1,6 1026,0 43 -
00:19 17,3 4,9 1,4 ESE 1,6 1026,0 44 -
00:24 17,3 4,9   Calm 1,6 1026,0 44 -
00:29 17,2 4,8   Calm   1026,0 44 -
00:34 17,1 4,7   Calm 1,6 1026,0 44 -
00:39 17,0 4,7   Calm 1,6 1026,0 44 -
00:44 16,9 4,9   Calm   1026,0 45 -
00:49 16,8 4,8   Calm 1,6 1026,0 45 -
00:54 16,6 4,6   Calm 1,6 1025,6 45 -
00:59 16,6 4,9   Calm 3,2 1026,0 46 -
01:04 16,6 4,6   Calm 3,2 1026,0 45 -
01:09 16,6 4,6   Calm 1,6 1026,0 45 -
01:14 16,4 4,7   Calm 3,2 1025,6 46 -
01:19 16,1 4,8   Calm   1025,6 47 -
01:24 15,9 4,9   Calm   1025,6 48 -
01:29 15,9 4,9   Calm   1025,6 48 -
01:34 15,7 4,7   Calm 4,8 1025,6 48 -
01:39 15,8 4,8   Calm 1,6 1025,6 48 -
01:44 15,8 4,5 1,4 East 3,2 1025,6 47 -
01:49 15,8 4,5   Calm 1,6 1025,6 47 -
01:54 15,8 4,8 1,4 East 1,6 1025,6 48 -
01:59 15,8 4,8   Calm 3,2 1025,3 48 -
02:04 15,7 4,4 3,2 East 4,8 1025,3 47 -
02:09 15,7 4,7 1,4 East 3,2 1025,3 48 -
02:14 15,6 4,6   Calm 3,2 1025,3 48 -
02:19 15,5 4,5 3,2 ENE 4,8 1025,3 48 -
02:24 15,3 4,4 4,7 East 4,8 1025,3 48 -
02:29 15,3 4,6 1,4 East 6,4 1025,3 49 -
02:34 15,2 4,6 1,4 ENE 3,2 1025,3 49 -
02:39 15,1 4,8   Calm 6,4 1025,3 50 -
02:44 14,9 4,9 1,4 East 3,2 1024,9 51 -
02:49 14,8 4,5 1,4 East 4,8 1024,9 50 -
02:54 14,9 4,6 3,2 ENE 4,8 1024,9 50 -
02:59 14,9 4,6   Calm 3,2 1024,9 50 -
03:04 14,8 4,5   Calm   1024,9 50 -
03:09 14,6 4,6   Calm   1024,9 51 -
03:14 14,5 4,5   Calm   1024,9 51 -
03:19 14,4 4,4   Calm 1,6 1024,6 51 -
03:24 14,4 4,4   Calm   1024,6 51 -
03:29 14,3 4,3   Calm   1024,6 51 -
03:34 14,1 4,4   Calm   1024,6 52 -
03:39 13,9 4,5   Calm   1024,6 53 -
03:44 13,8 4,4   Calm   1024,6 53 -
03:49 13,9 4,2 4,7 ENE 4,8 1024,6 52 -
03:54 13,9 4,2 3,2 East 3,2 1024,6 52 -
03:59 13,9 4,2 1,4 East 1,6 1024,6 52 -
04:04 13,9 4,2 4,7 ENE 6,4 1024,6 52 -
04:09 13,8 4,1 3,2 NE 4,8 1024,6 52 -
04:14 13,7 4,0 4,7 ENE 6,4 1024,3 52 -
04:19 13,6 4,2 3,2 East 6,4 1024,3 53 -
04:24 13,5 4,1 4,7 East 6,4 1024,6 53 -
04:29 13,4 4,0   Calm 3,2 1024,3 53 -
04:34 13,3 4,2   Calm 6,4 1024,3 54 -
04:39 13,2 4,1 1,4 ENE 3,2 1024,3 54 -
04:44 13,2 4,1 1,4 ENE 3,2 1024,3 54 -
04:49 13,1 4,0   Calm 1,6 1023,9 54 -
04:54 13,0 3,9   Calm 1,6 1023,9 54 -
04:59 13,0 4,2   Calm 1,6 1023,9 55 -
05:04 12,9 3,8   Calm 1,6 1023,9 54 -
05:09 12,8 4,0   Calm   1023,9 55 -
05:14 12,8 3,7 3,2 ENE 3,2 1023,9 54 -
05:19 12,7 3,6   Calm 1,6 1023,6 54 -
05:23 12,7 3,9   Calm 1,6 1023,6 55 -
05:29 12,5 3,7 1,4 East 3,2 1023,6 55 -
05:34 12,4 3,9 1,4 ENE 3,2 1023,6 56 -
Daily Summary for Sunday 21 April 2019
Time Temp. ( °C ) Dew pt. ( °C ) Wind ( km/h ) from Gust ( km/h ) Pressure ( hPa ) Humid.( % ) Rainrate ( cm )
High17,6 4,9 4,7 East ( 30/64 ) 6,4 1026,3 56 -
Average14,9 4,4 1,0 Calm #42/67 2,6 1025,0 50 -
Low12,4 3,6 -   0,0 1023,6 42 -
Daily Tabular details for Sunday 21 April 2019
Time Temp. ( °C ) Dew pt. ( °C ) Wind ( km/h ) from Gust ( km/h ) Pressure ( hPa ) Humid.( % ) Rainrate ( cm )
00:03 17,6 4,5   Calm 1,6 1026,0 42 -
00:09 17,5 4,8   Calm 1,6 1026,3 43 -
00:14 17,3 4,6   Calm 1,6 1026,0 43 -
00:19 17,3 4,9 1,4 ESE 1,6 1026,0 44 -
00:24 17,3 4,9   Calm 1,6 1026,0 44 -
00:29 17,2 4,8   Calm   1026,0 44 -
00:34 17,1 4,7   Calm 1,6 1026,0 44 -
00:39 17,0 4,7   Calm 1,6 1026,0 44 -
00:44 16,9 4,9   Calm   1026,0 45 -
00:49 16,8 4,8   Calm 1,6 1026,0 45 -
00:54 16,6 4,6   Calm 1,6 1025,6 45 -
00:59 16,6 4,9   Calm 3,2 1026,0 46 -
01:04 16,6 4,6   Calm 3,2 1026,0 45 -
01:09 16,6 4,6   Calm 1,6 1026,0 45 -
01:14 16,4 4,7   Calm 3,2 1025,6 46 -
01:19 16,1 4,8   Calm   1025,6 47 -
01:24 15,9 4,9   Calm   1025,6 48 -
01:29 15,9 4,9   Calm   1025,6 48 -
01:34 15,7 4,7   Calm 4,8 1025,6 48 -
01:39 15,8 4,8   Calm 1,6 1025,6 48 -
01:44 15,8 4,5 1,4 East 3,2 1025,6 47 -
01:49 15,8 4,5   Calm 1,6 1025,6 47 -
01:54 15,8 4,8 1,4 East 1,6 1025,6 48 -
01:59 15,8 4,8   Calm 3,2 1025,3 48 -
02:04 15,7 4,4 3,2 East 4,8 1025,3 47 -
02:09 15,7 4,7 1,4 East 3,2 1025,3 48 -
02:14 15,6 4,6   Calm 3,2 1025,3 48 -
02:19 15,5 4,5 3,2 ENE 4,8 1025,3 48 -
02:24 15,3 4,4 4,7 East 4,8 1025,3 48 -
02:29 15,3 4,6 1,4 East 6,4 1025,3 49 -
02:34 15,2 4,6 1,4 ENE 3,2 1025,3 49 -
02:39 15,1 4,8   Calm 6,4 1025,3 50 -
02:44 14,9 4,9 1,4 East 3,2 1024,9 51 -
02:49 14,8 4,5 1,4 East 4,8 1024,9 50 -
02:54 14,9 4,6 3,2 ENE 4,8 1024,9 50 -
02:59 14,9 4,6   Calm 3,2 1024,9 50 -
03:04 14,8 4,5   Calm   1024,9 50 -
03:09 14,6 4,6   Calm   1024,9 51 -
03:14 14,5 4,5   Calm   1024,9 51 -
03:19 14,4 4,4   Calm 1,6 1024,6 51 -
03:24 14,4 4,4   Calm   1024,6 51 -
03:29 14,3 4,3   Calm   1024,6 51 -
03:34 14,1 4,4   Calm   1024,6 52 -
03:39 13,9 4,5   Calm   1024,6 53 -
03:44 13,8 4,4   Calm   1024,6 53 -
03:49 13,9 4,2 4,7 ENE 4,8 1024,6 52 -
03:54 13,9 4,2 3,2 East 3,2 1024,6 52 -
03:59 13,9 4,2 1,4 East 1,6 1024,6 52 -
04:04 13,9 4,2 4,7 ENE 6,4 1024,6 52 -
04:09 13,8 4,1 3,2 NE 4,8 1024,6 52 -
04:14 13,7 4,0 4,7 ENE 6,4 1024,3 52 -
04:19 13,6 4,2 3,2 East 6,4 1024,3 53 -
04:24 13,5 4,1 4,7 East 6,4 1024,6 53 -
04:29 13,4 4,0   Calm 3,2 1024,3 53 -
04:34 13,3 4,2   Calm 6,4 1024,3 54 -
04:39 13,2 4,1 1,4 ENE 3,2 1024,3 54 -
04:44 13,2 4,1 1,4 ENE 3,2 1024,3 54 -
04:49 13,1 4,0   Calm 1,6 1023,9 54 -
04:54 13,0 3,9   Calm 1,6 1023,9 54 -
04:59 13,0 4,2   Calm 1,6 1023,9 55 -
05:04 12,9 3,8   Calm 1,6 1023,9 54 -
05:09 12,8 4,0   Calm   1023,9 55 -
05:14 12,8 3,7 3,2 ENE 3,2 1023,9 54 -
05:19 12,7 3,6   Calm 1,6 1023,6 54 -
05:23 12,7 3,9   Calm 1,6 1023,6 55 -
05:29 12,5 3,7 1,4 East 3,2 1023,6 55 -
05:34 12,4 3,9 1,4 ENE 3,2 1023,6 56 -

Download your copy of this data-set  here

Our weather-data as stored at Weather Underground. Script developed by Jim McMurry. Adapted for the template by Leuven-Template.eu

You find our weather info also at:

UK Metoffice

WeatherCloud

European Weather Network

Weather Underground

Benelux Weather Network

AWEKAS

WeatherlinkIP

Citizen Weather Observer Program (CWOP)

HAMweather, WeatherForYou, PWS Weather

Equipment we use:

Weather-station
Davis VUE

Weather-program
Meteobridge

Weather-server
D-Link DIR-505

Provider
Robohost

Davis VUE

Meteobridge

D-Link DIR-505

Robohost